Tracking 33877 objects as of 19-Apr-2026
HD Live streaming from Space Station
objects crossing your sky now

STARLINK-5691

Track STARLINK-5691 now!
10-day predictions
STARLINK-5691 is classified as:


NORAD ID: 55478
Int'l Code: 2023-015AF
Perigee: 489.2 km
Apogee: 491.1 km
Inclination: 43.0 °
Period: 94.3 minutes
Semi major axis: 6861 km
RCS: Unknown
Launch date: February 2, 2023
Source: United States (US)
Launch site: AIR FORCE EASTERN TEST RANGE (AFETR)
Your satellite tracking list
Your tracking list is empty




NASA's NSSDC Master Catalog

Two Line Element Set (TLE):
1 55478U 23015AF  26109.58335648 -.00018609  00000-0 -66810-3 0  9990
2 55478  43.0001  87.1785 0001421 276.0156 236.1134 15.27594455  5787
Source of the keplerian elements: AFSPC